QPF
0.00 0.00 0.00 0.00 0.00 0.00 0.00 0.00 0.00 0.00 0.00 0.00 0.00 0.00 0.00 0.01 0.01 0.02 0.00 0.00 0.00 0.00 0.00 0.01 0.02 0.01 0.01 0.01 0.01 0.01 0.01 0.01 0.01 0.01 0.01 0.01 0.01 0.02 0.02 0.02 0.02 0.03 0.04 0.05 0.03 0.03 0.04 0.06 0.07
0.00 0.00 0.00 0.00 0.00 0.00 0.00 0.00 0.00 0.00 0.00 0.00 0.00 0.00 0.00 0.00 0.00 0.00 0.00 0.00 0.00 0.00 0.00 0.00 0.01 0.02 0.02 0.01 0.01 0.01 0.01 0.01 0.00 0.01 0.01 0.01 0.02 0.02 0.02 0.03 0.02 0.02 0.03 0.03 0.04 0.04 0.03 0.06 0.05
0.00 0.00 0.00 0.00 0.00 0.00 0.00 0.00 0.00 0.00 0.00 0.00 0.00 0.00 0.00 0.00 0.00 0.00 0.00 0.00 0.00 0.00 0.00 0.01 0.01 0.01 0.01 0.01 0.01 0.01 0.01 0.00 0.01 0.01 0.02 0.02 0.03 0.03 0.03 0.04 0.03 0.03 0.03 0.03 0.03 0.03 0.03 0.04 0.05
0.00 0.00 0.00 0.00 0.00 0.00 0.00 0.00 0.00 0.00 0.00 0.00 0.00 0.00 0.00 0.00 0.00 0.00 0.00 0.00 0.00 0.00 0.00 0.01 0.01 0.01 0.01 0.01 0.01 0.01 0.01 0.01 0.01 0.02 0.02 0.02 0.03 0.03 0.04 0.04 0.03 0.02 0.02 0.02 0.02 0.02 0.02 0.02 0.03
0.00 0.00 0.00 0.00 0.00 0.00 0.00 0.00 0.00 0.00 0.00 0.00 0.00 0.00 0.01 0.01 0.00 0.00 0.00 0.00 0.00 0.00 0.01 0.01 0.01 0.01 0.01 0.02 0.02 0.01 0.01 0.01 0.02 0.02 0.02 0.03 0.03 0.03 0.04 0.03 0.02 0.02 0.02 0.02 0.02 0.03 0.05 0.06 0.05
0.00 0.00 0.00 0.00 0.00 0.00 0.00 0.00 0.00 0.00 0.00 0.00 0.00 0.01 0.01 0.02 0.01 0.00 0.00 0.00 0.00 0.00 0.00 0.01 0.01 0.01 0.01 0.02 0.02 0.01 0.01 0.01 0.02 0.02 0.02 0.03 0.03 0.03 0.04 0.04 0.03 0.02 0.02 0.02 0.03 0.04 0.05 0.07 0.06
0.00 0.00 0.00 0.00 0.00 0.00 0.00 0.00 0.00 0.00 0.00 0.00 0.00 0.00 0.01 0.02 0.00 0.00 0.00 0.00 0.00 0.01 0.00 0.00 0.01 0.01 0.01 0.01 0.02 0.01 0.02 0.02 0.02 0.02 0.03 0.03 0.03 0.03 0.03 0.03 0.03 0.02 0.02 0.03 0.04 0.05 0.05 0.06 0.06
0.00 0.00 0.00 0.00 0.00 0.00 0.00 0.00 0.00 0.00 0.00 0.00 0.00 0.00 0.00 0.01 0.00 0.00 0.01 0.00 0.00 0.01 0.01 0.00 0.01 0.02 0.02 0.02 0.02 0.02 0.03 0.03 0.02 0.02 0.03 0.03 0.03 0.02 0.03 0.02 0.02 0.02 0.02 0.04 0.06 0.06 0.05 0.06 0.06
0.00 0.00 0.00 0.00 0.00 0.00 0.00 0.00 0.00 0.00 0.00 0.00 0.00 0.00 0.00 0.00 0.00 0.00 0.00 0.00 0.01 0.01 0.01 0.01 0.01 0.02 0.02 0.01 0.02 0.02 0.03 0.03 0.03 0.03 0.03 0.04 0.05 0.03 0.03 0.02 0.02 0.02 0.03 0.05 0.06 0.06 0.06 0.05 0.05
0.00 0.00 0.00 0.00 0.00 0.00 0.00 0.00 0.00 0.00 0.00 0.00 0.00 0.00 0.00 0.00 0.00 0.00 0.00 0.00 0.00 0.01 0.01 0.01 0.01 0.02 0.02 0.02 0.02 0.03 0.02 0.03 0.03 0.04 0.04 0.05 0.05 0.04 0.02 0.02 0.02 0.02 0.02 0.03 0.05 0.05 0.06 0.04 0.04
0.00 0.00 0.00 0.00 0.00 0.00 0.00 0.00 0.00 0.00 0.00 0.00 0.00 0.00 0.00 0.00 0.00 0.00 0.00 0.00 0.01 0.01 0.01 0.01 0.01 0.02 0.03 0.04 0.02 0.02 0.03 0.03 0.03 0.03 0.03 0.03 0.03 0.02 0.02 0.03 0.03 0.02 0.01 0.02 0.01 0.01 0.02 0.02 0.03
0.00 0.00 0.00 0.00 0.00 0.00 0.00 0.00 0.00 0.00 0.00 0.00 0.00 0.00 0.00 0.00 0.00 0.00 0.00 0.00 0.01 0.00 0.01 0.02 0.02 0.03 0.03 0.03 0.03 0.03 0.03 0.02 0.03 0.02 0.02 0.02 0.02 0.02 0.02 0.04 0.03 0.02 0.02 0.02 0.01 0.02 0.02 0.02 0.02
0.00 0.00 0.00 0.00 0.00 0.00 0.00 0.00 0.00 0.00 0.00 0.00 0.00 0.00 0.00 0.00 0.00 0.01 0.00 0.00 0.00 0.00 0.01 0.01 0.04 0.03 0.02 0.03 0.03 0.03 0.03 0.03 0.02 0.02 0.02 0.02 0.03 0.03 0.02 0.03 0.03 0.02 0.02 0.01 0.01 0.01 0.03 0.04 0.02
0.00 0.00 0.00 0.00 0.00 0.00 0.00 0.00 0.00 0.00 0.00 0.00 0.00 0.00 0.00 0.00 0.01 0.01 0.01 0.00 0.00 0.01 0.01 0.01 0.02 0.02 0.03 0.05 0.05 0.04 0.05 0.04 0.04 0.03 0.01 0.03 0.03 0.03 0.03 0.03 0.03 0.02 0.02 0.01 0.01 0.01 0.04 0.05 0.04
0.00 0.00 0.00 0.00 0.00 0.00 0.00 0.00 0.00 0.00 0.00 0.00 0.00 0.00 0.00 0.00 0.02 0.02 0.01 0.00 0.01 0.02 0.02 0.01 0.01 0.02 0.03 0.06 0.07 0.04 0.06 0.06 0.05 0.04 0.03 0.02 0.02 0.04 0.04 0.03 0.04 0.04 0.03 0.03 0.03 0.05 0.05 0.05 0.05
0.00 0.00 0.00 0.00 0.00 0.00 0.00 0.00 0.00 0.00 0.00 0.00 0.00 0.00 0.00 0.00 0.01 0.01 0.00 0.00 0.01 0.03 0.03 0.01 0.01 0.02 0.03 0.06 0.06 0.04 0.05 0.06 0.06 0.06 0.04 0.03 0.03 0.04 0.05 0.05 0.05 0.05 0.04 0.05 0.07 0.07 0.08 0.09 0.09
0.00 0.00 0.00 0.00 0.00 0.00 0.00 0.00 0.00 0.00 0.00 0.00 0.00 0.00 0.00 0.00 0.00 0.00 0.00 0.01 0.02 0.03 0.03 0.03 0.02 0.02 0.03 0.06 0.07 0.05 0.05 0.05 0.05 0.05 0.05 0.04 0.04 0.03 0.04 0.07 0.08 0.06 0.06 0.07 0.05 0.06 0.07 0.09 0.10
0.00 0.00 0.00 0.00 0.00 0.00 0.00 0.00 0.00 0.00 0.00 0.00 0.00 0.00 0.00 0.00 0.00 0.00 0.00 0.01 0.01 0.02 0.02 0.03 0.04 0.03 0.06 0.08 0.06 0.05 0.06 0.06 0.06 0.05 0.05 0.05 0.04 0.04 0.05 0.05 0.07 0.07 0.07 0.08 0.08 0.09 0.08 0.07 0.07
0.00 0.00 0.00 0.00 0.00 0.00 0.00 0.00 0.00 0.00 0.00 0.00 0.00 0.00 0.00 0.00 0.00 0.00 0.00 0.01 0.01 0.02 0.03 0.05 0.05 0.04 0.07 0.08 0.07 0.06 0.06 0.07 0.07 0.06 0.05 0.07 0.07 0.07 0.07 0.05 0.06 0.07 0.07 0.08 0.08 0.08 0.08 0.07 0.06
0.00 0.00 0.00 0.00 0.00 0.00 0.00 0.00 0.00 0.00 0.00 0.00 0.00 0.00 0.00 0.00 0.00 0.01 0.01 0.00 0.01 0.03 0.05 0.06 0.05 0.04 0.07 0.09 0.09 0.08 0.09 0.08 0.07 0.07 0.07 0.08 0.08 0.08 0.08 0.08 0.06 0.06 0.08 0.08 0.07 0.09 0.09 0.07 0.06
0.00 0.00 0.00 0.00 0.00 0.00 0.00 0.00 0.00 0.00 0.00 0.00 0.00 0.00 0.00 0.00 0.00 0.01 0.01 0.01 0.01 0.02 0.03 0.03 0.03 0.04 0.07 0.11 0.12 0.12 0.11 0.10 0.07 0.07 0.07 0.07 0.08 0.09 0.10 0.10 0.08 0.08 0.07 0.06 0.08 0.09 0.10 0.09 0.08
0.00 0.00 0.00 0.00 0.00 0.00 0.00 0.00 0.00 0.00 0.00 0.00 0.00 0.00 0.00 0.00 0.00 0.01 0.00 0.01 0.01 0.01 0.02 0.03 0.04 0.07 0.08 0.10 0.15 0.15 0.12 0.10 0.09 0.09 0.09 0.08 0.07 0.08 0.10 0.11 0.09 0.09 0.07 0.07 0.06 0.06 0.09 0.10 0.08
0.00 0.00 0.00 0.00 0.00 0.00 0.00 0.00 0.00 0.00 0.00 0.00 0.00 0.00 0.00 0.00 0.00 0.00 0.00 0.00 0.00 0.01 0.04 0.07 0.07 0.07 0.08 0.08 0.13 0.17 0.13 0.11 0.11 0.10 0.11 0.09 0.07 0.07 0.08 0.09 0.10 0.09 0.07 0.07 0.07 0.08 0.08 0.08 0.08
0.00 0.00 0.00 0.00 0.00 0.00 0.00 0.00 0.00 0.00 0.00 0.00 0.00 0.00 0.00 0.00 0.00 0.00 0.00 0.00 0.01 0.04 0.04 0.05 0.06 0.05 0.04 0.06 0.07 0.09 0.10 0.14 0.13 0.09 0.10 0.09 0.07 0.06 0.09 0.09 0.10 0.09 0.07 0.08 0.08 0.08 0.08 0.09 0.09
0.00 0.00 0.00 0.00 0.00 0.00 0.00 0.00 0.00 0.00 0.00 0.00 0.00 0.00 0.00 0.00 0.00 0.00 0.00 0.01 0.01 0.01 0.00 0.01 0.03 0.03 0.03 0.04 0.06 0.07 0.11 0.15 0.14 0.12 0.12 0.10 0.07 0.05 0.07 0.08 0.10 0.10 0.09 0.10 0.10 0.08 0.08 0.08 0.09
0.00 0.00 0.00 0.00 0.00 0.00 0.00 0.00 0.00 0.00 0.00 0.00 0.00 0.00 0.00 0.00 0.00 0.01 0.01 0.01 0.00 0.00 0.00 0.00 0.01 0.02 0.02 0.02 0.03 0.06 0.08 0.11 0.11 0.11 0.14 0.12 0.09 0.07 0.08 0.09 0.09 0.09 0.09 0.08 0.09 0.08 0.08 0.08 0.08
0.00 0.00 0.00 0.00 0.00 0.00 0.00 0.00 0.00 0.00 0.00 0.00 0.00 0.00 0.00 0.00 0.00 0.01 0.01 0.01 0.00 0.00 0.00 0.01 0.01 0.02 0.02 0.01 0.02 0.04 0.08 0.09 0.09 0.11 0.12 0.11 0.09 0.07 0.07 0.07 0.09 0.11 0.11 0.10 0.09 0.08 0.07 0.07 0.06
0.00 0.00 0.00 0.00 0.00 0.00 0.00 0.00 0.00 0.00 0.00 0.00 0.00 0.00 0.00 0.00 0.00 0.00 0.01 0.00 0.00 0.00 0.00 0.00 0.01 0.02 0.02 0.01 0.02 0.04 0.06 0.07 0.08 0.08 0.08 0.09 0.08 0.06 0.05 0.06 0.06 0.09 0.11 0.12 0.11 0.09 0.07 0.07 0.06
0.00 0.00 0.00 0.00 0.00 0.00 0.00 0.00 0.00 0.00 0.00 0.00 0.00 0.00 0.00 0.00 0.00 0.00 0.00 0.00 0.00 0.00 0.00 0.00 0.01 0.01 0.02 0.01 0.02 0.02 0.04 0.05 0.04 0.06 0.05 0.05 0.06 0.05 0.05 0.05 0.06 0.07 0.08 0.09 0.09 0.08 0.08 0.08 0.08
0.00 0.00 0.00 0.00 0.00 0.00 0.00 0.00 0.00 0.00 0.00 0.00 0.00 0.00 0.00 0.01 0.00 0.00 0.00 0.00 0.01 0.01 0.01 0.01 0.01 0.00 0.01 0.02 0.02 0.03 0.04 0.03 0.02 0.03 0.04 0.04 0.04 0.04 0.04 0.05 0.05 0.05 0.06 0.06 0.06 0.06 0.05 0.06 0.07
MSLP
1009.53 1009.98 1010.52 1011.07 1011.53 1011.86 1012.04 1012.09 1012.08 1012.06 1012.12 1012.26 1012.49 1012.77 1013.02 1013.20 1013.26 1013.22 1013.10 1012.99 1012.97 1013.10 1013.42 1013.89 1014.47 1015.04 1015.53 1015.85 1015.97 1015.93 1015.77 1015.59 1015.46 1015.45 1015.57 1015.80 1016.07 1016.32 1016.49 1016.55 1016.51 1016.40 1016.29 1016.22 1016.24 1016.35 1016.54 1016.76 1016.98
1009.55 1010.10 1010.72 1011.32 1011.81 1012.13 1012.27 1012.26 1012.16 1012.06 1012.03 1012.10 1012.27 1012.49 1012.72 1012.88 1012.94 1012.91 1012.82 1012.75 1012.78 1012.97 1013.35 1013.90 1014.54 1015.19 1015.74 1016.11 1016.28 1016.27 1016.14 1015.96 1015.83 1015.79 1015.88 1016.05 1016.27 1016.47 1016.60 1016.63 1016.57 1016.47 1016.39 1016.36 1016.44 1016.61 1016.86 1017.13 1017.37
1009.69 1010.31 1010.98 1011.60 1012.07 1012.36 1012.45 1012.37 1012.20 1012.03 1011.93 1011.94 1012.06 1012.25 1012.46 1012.61 1012.68 1012.66 1012.60 1012.57 1012.64 1012.88 1013.31 1013.90 1014.60 1015.29 1015.89 1016.31 1016.54 1016.57 1016.47 1016.31 1016.18 1016.14 1016.19 1016.32 1016.48 1016.63 1016.72 1016.72 1016.67 1016.60 1016.56 1016.60 1016.74 1016.97 1017.26 1017.55 1017.79
1009.94 1010.59 1011.27 1011.88 1012.32 1012.55 1012.57 1012.43 1012.21 1011.99 1011.84 1011.82 1011.91 1012.09 1012.29 1012.44 1012.53 1012.53 1012.50 1012.50 1012.60 1012.87 1013.33 1013.94 1014.66 1015.38 1016.00 1016.46 1016.72 1016.80 1016.74 1016.61 1016.50 1016.45 1016.49 1016.59 1016.71 1016.82 1016.88 1016.89 1016.86 1016.83 1016.85 1016.95 1017.15 1017.43 1017.73 1018.02 1018.23
1010.28 1010.93 1011.58 1012.13 1012.51 1012.67 1012.63 1012.44 1012.18 1011.93 1011.77 1011.75 1011.84 1012.02 1012.23 1012.41 1012.51 1012.54 1012.54 1012.56 1012.69 1012.97 1013.43 1014.04 1014.75 1015.46 1016.08 1016.55 1016.84 1016.94 1016.92 1016.84 1016.76 1016.72 1016.76 1016.84 1016.95 1017.05 1017.11 1017.13 1017.14 1017.16 1017.24 1017.41 1017.65 1017.94 1018.24 1018.49 1018.65
1010.66 1011.28 1011.86 1012.33 1012.62 1012.70 1012.60 1012.37 1012.09 1011.85 1011.71 1011.71 1011.84 1012.05 1012.29 1012.49 1012.62 1012.68 1012.71 1012.76 1012.89 1013.17 1013.61 1014.19 1014.86 1015.54 1016.13 1016.59 1016.88 1017.01 1017.02 1016.98 1016.94 1016.93 1016.99 1017.08 1017.20 1017.30 1017.38 1017.43 1017.48 1017.56 1017.69 1017.90 1018.16 1018.45 1018.72 1018.91 1019.00
1011.02 1011.57 1012.06 1012.43 1012.62 1012.62 1012.47 1012.21 1011.94 1011.73 1011.63 1011.68 1011.86 1012.12 1012.41 1012.66 1012.83 1012.92 1012.98 1013.04 1013.18 1013.44 1013.85 1014.38 1014.99 1015.60 1016.15 1016.57 1016.85 1017.00 1017.04 1017.04 1017.04 1017.08 1017.17 1017.29 1017.42 1017.55 1017.65 1017.74 1017.83 1017.94 1018.11 1018.34 1018.60 1018.87 1019.09 1019.23 1019.25
1011.34 1011.79 1012.17 1012.41 1012.50 1012.42 1012.22 1011.95 1011.70 1011.53 1011.50 1011.62 1011.87 1012.20 1012.54 1012.84 1013.06 1013.19 1013.28 1013.36 1013.50 1013.74 1014.10 1014.57 1015.11 1015.65 1016.14 1016.52 1016.78 1016.93 1017.01 1017.05 1017.10 1017.19 1017.31 1017.46 1017.62 1017.76 1017.89 1017.99 1018.11 1018.25 1018.43 1018.66 1018.91 1019.15 1019.33 1019.41 1019.38
1011.57 1011.92 1012.17 1012.29 1012.27 1012.11 1011.87 1011.60 1011.37 1011.26 1011.30 1011.49 1011.81 1012.21 1012.61 1012.97 1013.24 1013.43 1013.55 1013.65 1013.80 1014.02 1014.34 1014.75 1015.21 1015.69 1016.11 1016.45 1016.69 1016.85 1016.95 1017.04 1017.14 1017.27 1017.43 1017.60 1017.78 1017.93 1018.06 1018.17 1018.29 1018.43 1018.61 1018.83 1019.06 1019.27 1019.41 1019.46 1019.41
1011.73 1011.97 1012.10 1012.10 1011.98 1011.75 1011.47 1011.19 1010.99 1010.92 1011.02 1011.28 1011.67 1012.13 1012.60 1013.01 1013.34 1013.58 1013.74 1013.88 1014.03 1014.24 1014.53 1014.89 1015.30 1015.71 1016.08 1016.39 1016.62 1016.79 1016.93 1017.05 1017.19 1017.36 1017.55 1017.74 1017.92 1018.06 1018.17 1018.26 1018.36 1018.48 1018.64 1018.83 1019.05 1019.25 1019.38 1019.43 1019.39
1011.83 1011.98 1012.00 1011.90 1011.68 1011.38 1011.06 1010.77 1010.59 1010.55 1010.70 1011.01 1011.45 1011.96 1012.48 1012.95 1013.34 1013.62 1013.83 1014.01 1014.18 1014.40 1014.67 1015.00 1015.36 1015.73 1016.07 1016.36 1016.59 1016.79 1016.96 1017.12 1017.31 1017.51 1017.71 1017.90 1018.06 1018.17 1018.25 1018.30 1018.35 1018.43 1018.56 1018.74 1018.94 1019.14 1019.29 1019.37 1019.37
1011.94 1012.00 1011.93 1011.74 1011.44 1011.09 1010.72 1010.41 1010.22 1010.20 1010.37 1010.70 1011.17 1011.72 1012.28 1012.80 1013.23 1013.58 1013.84 1014.05 1014.26 1014.48 1014.75 1015.06 1015.41 1015.75 1016.08 1016.37 1016.62 1016.85 1017.06 1017.27 1017.49 1017.71 1017.92 1018.10 1018.23 1018.30 1018.32 1018.32 1018.32 1018.35 1018.45 1018.61 1018.81 1019.02 1019.21 1019.34 1019.39
1012.08 1012.08 1011.94 1011.68 1011.32 1010.91 1010.51 1010.17 1009.96 1009.93 1010.09 1010.42 1010.90 1011.46 1012.04 1012.59 1013.07 1013.46 1013.77 1014.03 1014.26 1014.51 1014.78 1015.09 1015.43 1015.77 1016.10 1016.41 1016.70 1016.97 1017.22 1017.48 1017.74 1017.98 1018.20 1018.36 1018.45 1018.48 1018.44 1018.38 1018.32 1018.31 1018.37 1018.51 1018.72 1018.95 1019.18 1019.36 1019.48
1012.28 1012.24 1012.06 1011.75 1011.34 1010.89 1010.45 1010.08 1009.84 1009.78 1009.91 1010.22 1010.68 1011.23 1011.81 1012.38 1012.89 1013.31 1013.66 1013.95 1014.22 1014.49 1014.77 1015.09 1015.42 1015.78 1016.13 1016.47 1016.79 1017.11 1017.42 1017.73 1018.02 1018.29 1018.51 1018.66 1018.72 1018.71 1018.63 1018.51 1018.41 1018.36 1018.38 1018.51 1018.71 1018.97 1019.23 1019.47 1019.64
1012.55 1012.48 1012.27 1011.93 1011.50 1011.02 1010.56 1010.15 1009.88 1009.77 1009.85 1010.11 1010.53 1011.05 1011.62 1012.19 1012.71 1013.16 1013.54 1013.86 1014.14 1014.42 1014.72 1015.03 1015.38 1015.74 1016.11 1016.49 1016.86 1017.23 1017.59 1017.95 1018.28 1018.58 1018.81 1018.96 1019.01 1018.97 1018.86 1018.71 1018.57 1018.49 1018.49 1018.60 1018.80 1019.06 1019.35 1019.62 1019.82
1012.87 1012.77 1012.54 1012.20 1011.76 1011.28 1010.79 1010.37 1010.05 1009.89 1009.91 1010.11 1010.47 1010.95 1011.49 1012.04 1012.56 1013.02 1013.41 1013.75 1014.04 1014.32 1014.62 1014.93 1015.27 1015.64 1016.04 1016.44 1016.86 1017.28 1017.69 1018.10 1018.47 1018.80 1019.05 1019.21 1019.27 1019.23 1019.11 1018.94 1018.79 1018.68 1018.67 1018.75 1018.94 1019.20 1019.49 1019.76 1019.99
1013.18 1013.07 1012.85 1012.51 1012.09 1011.62 1011.13 1010.69 1010.33 1010.11 1010.07 1010.19 1010.48 1010.90 1011.39 1011.92 1012.43 1012.89 1013.28 1013.62 1013.92 1014.20 1014.48 1014.78 1015.11 1015.49 1015.89 1016.32 1016.77 1017.23 1017.69 1018.14 1018.55 1018.91 1019.19 1019.37 1019.45 1019.43 1019.32 1019.17 1019.01 1018.90 1018.86 1018.93 1019.09 1019.32 1019.60 1019.86 1020.08
1013.45 1013.34 1013.13 1012.83 1012.45 1012.01 1011.54 1011.08 1010.68 1010.41 1010.28 1010.32 1010.52 1010.87 1011.31 1011.80 1012.29 1012.75 1013.15 1013.49 1013.78 1014.05 1014.31 1014.60 1014.92 1015.28 1015.68 1016.13 1016.60 1017.08 1017.58 1018.06 1018.50 1018.89 1019.20 1019.41 1019.52 1019.53 1019.45 1019.32 1019.18 1019.07 1019.03 1019.07 1019.19 1019.39 1019.64 1019.88 1020.09
1013.65 1013.55 1013.39 1013.15 1012.82 1012.43 1011.98 1011.52 1011.08 1010.73 1010.52 1010.46 1010.57 1010.83 1011.21 1011.66 1012.13 1012.59 1012.99 1013.34 1013.63 1013.89 1014.14 1014.41 1014.71 1015.06 1015.45 1015.89 1016.37 1016.87 1017.37 1017.87 1018.33 1018.74 1019.08 1019.32 1019.47 1019.52 1019.48 1019.39 1019.28 1019.18 1019.12 1019.14 1019.23 1019.39 1019.59 1019.81 1020.01
1013.76 1013.70 1013.61 1013.45 1013.21 1012.88 1012.47 1012.00 1011.51 1011.08 1010.75 1010.58 1010.58 1010.74 1011.05 1011.46 1011.92 1012.38 1012.81 1013.17 1013.48 1013.75 1014.00 1014.25 1014.53 1014.86 1015.24 1015.66 1016.13 1016.63 1017.13 1017.62 1018.09 1018.50 1018.85 1019.12 1019.30 1019.39 1019.40 1019.35 1019.27 1019.19 1019.13 1019.13 1019.19 1019.31 1019.48 1019.67 1019.87
1013.79 1013.81 1013.81 1013.77 1013.64 1013.38 1013.00 1012.51 1011.97 1011.44 1010.99 1010.67 1010.54 1010.60 1010.84 1011.21 1011.66 1012.14 1012.60 1013.00 1013.35 1013.64 1013.90 1014.15 1014.42 1014.73 1015.08 1015.49 1015.93 1016.41 1016.89 1017.37 1017.81 1018.22 1018.57 1018.85 1019.05 1019.18 1019.23 1019.23 1019.18 1019.12 1019.07 1019.05 1019.09 1019.17 1019.31 1019.49 1019.69
1013.77 1013.90 1014.04 1014.13 1014.11 1013.93 1013.58 1013.07 1012.45 1011.80 1011.20 1010.74 1010.47 1010.41 1010.57 1010.90 1011.36 1011.87 1012.37 1012.84 1013.24 1013.58 1013.86 1014.13 1014.39 1014.69 1015.02 1015.40 1015.81 1016.25 1016.70 1017.14 1017.56 1017.94 1018.27 1018.55 1018.76 1018.91 1019.00 1019.03 1019.03 1018.99 1018.96 1018.94 1018.96 1019.03 1019.14 1019.31 1019.51
1013.73 1014.00 1014.29 1014.52 1014.62 1014.52 1014.19 1013.64 1012.93 1012.15 1011.40 1010.78 1010.36 1010.19 1010.27 1010.57 1011.03 1011.58 1012.15 1012.69 1013.16 1013.56 1013.89 1014.18 1014.45 1014.74 1015.05 1015.40 1015.77 1016.17 1016.57 1016.97 1017.34 1017.68 1017.99 1018.25 1018.46 1018.63 1018.75 1018.81 1018.84 1018.84 1018.82 1018.81 1018.83 1018.89 1018.99 1019.15 1019.35
1013.69 1014.11 1014.56 1014.93 1015.14 1015.10 1014.78 1014.19 1013.39 1012.48 1011.57 1010.80 1010.24 1009.95 1009.96 1010.23 1010.71 1011.31 1011.95 1012.57 1013.12 1013.59 1013.97 1014.29 1014.58 1014.86 1015.15 1015.46 1015.80 1016.15 1016.50 1016.84 1017.17 1017.46 1017.73 1017.97 1018.18 1018.35 1018.48 1018.58 1018.64 1018.67 1018.69 1018.70 1018.72 1018.78 1018.88 1019.03 1019.24
1013.66 1014.22 1014.81 1015.30 1015.60 1015.61 1015.29 1014.65 1013.77 1012.73 1011.70 1010.79 1010.11 1009.73 1009.68 1009.93 1010.42 1011.07 1011.78 1012.48 1013.11 1013.65 1014.08 1014.44 1014.74 1015.01 1015.28 1015.56 1015.86 1016.16 1016.46 1016.75 1017.02 1017.27 1017.50 1017.71 1017.90 1018.07 1018.22 1018.35 1018.44 1018.51 1018.56 1018.59 1018.63 1018.70 1018.80 1018.95 1019.15
1013.63 1014.30 1014.98 1015.56 1015.91 1015.95 1015.62 1014.95 1013.99 1012.88 1011.74 1010.74 1009.97 1009.54 1009.45 1009.69 1010.20 1010.89 1011.66 1012.43 1013.13 1013.72 1014.21 1014.59 1014.90 1015.16 1015.41 1015.66 1015.91 1016.17 1016.42 1016.66 1016.88 1017.09 1017.28 1017.47 1017.64 1017.81 1017.98 1018.12 1018.25 1018.36 1018.44 1018.51 1018.58 1018.66 1018.77 1018.92 1019.11
1013.56 1014.29 1015.02 1015.63 1016.00 1016.04 1015.70 1015.01 1014.02 1012.86 1011.69 1010.64 1009.84 1009.37 1009.27 1009.52 1010.06 1010.78 1011.60 1012.42 1013.17 1013.81 1014.32 1014.72 1015.03 1015.29 1015.51 1015.73 1015.94 1016.15 1016.36 1016.56 1016.74 1016.91 1017.08 1017.24 1017.40 1017.57 1017.75 1017.92 1018.08 1018.23 1018.36 1018.46 1018.56 1018.67 1018.79 1018.94 1019.12
1013.43 1014.15 1014.86 1015.45 1015.81 1015.83 1015.49 1014.79 1013.81 1012.67 1011.51 1010.48 1009.70 1009.25 1009.17 1009.43 1009.99 1010.74 1011.59 1012.44 1013.22 1013.88 1014.41 1014.82 1015.12 1015.36 1015.56 1015.75 1015.93 1016.10 1016.27 1016.44 1016.59 1016.74 1016.88 1017.03 1017.19 1017.37 1017.56 1017.76 1017.96 1018.14 1018.32 1018.47 1018.61 1018.75 1018.89 1019.05 1019.22
1013.22 1013.87 1014.51 1015.03 1015.32 1015.32 1014.97 1014.30 1013.38 1012.30 1011.22 1010.26 1009.54 1009.15 1009.11 1009.41 1009.99 1010.75 1011.61 1012.47 1013.26 1013.93 1014.46 1014.87 1015.17 1015.39 1015.57 1015.73 1015.88 1016.03 1016.17 1016.32 1016.46 1016.59 1016.73 1016.88 1017.05 1017.24 1017.45 1017.68 1017.91 1018.14 1018.36 1018.56 1018.75 1018.92 1019.10 1019.27 1019.45
1012.96 1013.48 1013.99 1014.40 1014.62 1014.57 1014.23 1013.61 1012.77 1011.80 1010.84 1010.00 1009.39 1009.08 1009.10 1009.42 1010.02 1010.79 1011.64 1012.49 1013.27 1013.94 1014.47 1014.87 1015.17 1015.38 1015.55 1015.69 1015.82 1015.95 1016.09 1016.22 1016.36 1016.50 1016.65 1016.82 1017.01 1017.22 1017.46 1017.71 1017.98 1018.25 1018.52 1018.77 1019.01 1019.23 1019.43 1019.63 1019.82
Thickness
5838 5842 5844 5840 5831 5815 5797 5802 5810 5807 5806 5811 5810 5807 5799 5791 5786 5772 5790 5797 5792 5787 5779 5772 5769 5767 5766 5765 5764 5762 5761 5760 5759 5758 5757 5757 5756 5756 5756 5755 5755 5754 5753 5753 5752 5751 5750 5749 5748
5846 5846 5843 5841 5824 5797 5792 5806 5805 5805 5809 5813 5810 5806 5799 5790 5792 5789 5792 5793 5791 5786 5780 5774 5767 5766 5764 5763 5762 5761 5760 5758 5757 5756 5756 5755 5755 5754 5754 5753 5753 5752 5751 5750 5750 5749 5748 5747 5746
5848 5848 5843 5838 5816 5800 5796 5808 5808 5812 5816 5813 5806 5805 5797 5787 5789 5791 5794 5793 5790 5785 5779 5771 5766 5764 5762 5761 5760 5759 5758 5757 5756 5755 5754 5753 5753 5752 5751 5751 5750 5749 5749 5748 5747 5746 5746 5745 5744
5849 5847 5845 5831 5809 5811 5813 5815 5817 5813 5813 5813 5808 5797 5795 5795 5796 5797 5795 5792 5788 5782 5778 5770 5765 5762 5761 5759 5758 5757 5756 5755 5754 5753 5752 5751 5751 5750 5749 5748 5748 5747 5746 5746 5745 5744 5744 5743 5742
5852 5847 5833 5819 5813 5818 5824 5825 5823 5815 5810 5810 5808 5794 5788 5795 5800 5798 5793 5791 5787 5783 5778 5769 5763 5761 5759 5757 5756 5755 5754 5754 5752 5751 5750 5749 5748 5748 5747 5746 5745 5745 5744 5743 5743 5742 5742 5741 5740
5848 5847 5826 5811 5811 5820 5827 5829 5826 5817 5811 5810 5807 5796 5786 5794 5796 5794 5793 5791 5788 5784 5778 5768 5761 5759 5757 5755 5754 5753 5752 5752 5751 5750 5748 5747 5746 5745 5745 5744 5743 5743 5742 5741 5741 5740 5740 5739 5738
5844 5839 5822 5818 5814 5817 5825 5833 5826 5818 5811 5811 5814 5798 5789 5793 5796 5796 5793 5790 5787 5784 5778 5770 5764 5759 5755 5754 5752 5751 5750 5750 5749 5748 5747 5745 5744 5743 5743 5742 5741 5741 5740 5739 5739 5738 5738 5737 5736
5852 5844 5825 5822 5817 5817 5830 5834 5831 5824 5815 5822 5819 5802 5792 5794 5798 5796 5791 5788 5785 5782 5778 5772 5768 5762 5758 5754 5751 5750 5749 5748 5747 5746 5745 5744 5743 5742 5741 5741 5740 5739 5738 5737 5737 5737 5736 5735 5735
5854 5838 5820 5821 5821 5823 5834 5830 5831 5834 5824 5820 5821 5817 5812 5803 5797 5791 5786 5783 5780 5778 5776 5773 5768 5762 5759 5756 5751 5749 5747 5746 5746 5745 5743 5744 5746 5745 5742 5740 5738 5737 5737 5736 5736 5735 5735 5734 5734
5848 5830 5824 5832 5836 5834 5834 5833 5832 5827 5818 5814 5812 5812 5809 5800 5794 5788 5783 5779 5776 5773 5773 5771 5767 5761 5759 5756 5752 5751 5750 5747 5748 5747 5745 5745 5744 5744 5742 5737 5737 5736 5736 5735 5735 5734 5735 5736 5737
5843 5832 5835 5840 5844 5842 5837 5837 5840 5829 5819 5821 5814 5808 5803 5798 5793 5789 5785 5782 5777 5774 5771 5769 5764 5759 5757 5755 5752 5751 5750 5748 5747 5746 5744 5743 5743 5743 5742 5740 5738 5737 5737 5738 5735 5737 5739 5739 5738
5839 5837 5839 5843 5847 5844 5840 5840 5837 5833 5832 5837 5830 5818 5808 5800 5795 5792 5787 5784 5779 5775 5771 5769 5764 5759 5756 5754 5752 5750 5749 5748 5748 5744 5744 5744 5743 5742 5742 5741 5741 5740 5740 5739 5740 5738 5738 5737 5737
5835 5837 5843 5848 5849 5847 5843 5840 5837 5835 5841 5839 5829 5817 5809 5804 5800 5796 5792 5787 5781 5774 5771 5768 5763 5759 5755 5751 5750 5750 5748 5748 5747 5744 5743 5743 5743 5742 5741 5739 5739 5741 5741 5740 5738 5738 5736 5736 5736
5837 5839 5843 5848 5847 5846 5840 5840 5836 5835 5841 5833 5824 5816 5812 5807 5803 5797 5791 5785 5780 5776 5771 5768 5763 5759 5754 5751 5749 5748 5747 5745 5746 5744 5743 5741 5742 5741 5740 5739 5739 5740 5740 5740 5739 5738 5736 5737 5737
5841 5835 5839 5844 5845 5845 5841 5831 5833 5840 5839 5828 5823 5817 5813 5809 5804 5798 5793 5787 5783 5777 5773 5768 5763 5759 5755 5752 5749 5748 5746 5745 5744 5743 5741 5740 5741 5740 5740 5741 5740 5740 5739 5737 5737 5736 5736 5736 5736
5837 5830 5825 5836 5842 5843 5835 5823 5836 5842 5836 5827 5823 5818 5812 5808 5805 5801 5797 5790 5786 5780 5773 5769 5766 5761 5756 5753 5749 5748 5746 5745 5744 5743 5741 5740 5739 5739 5739 5741 5741 5739 5739 5738 5737 5737 5736 5736 5736
5825 5820 5822 5827 5840 5840 5834 5827 5835 5843 5837 5828 5824 5819 5813 5807 5805 5803 5799 5793 5787 5781 5775 5769 5766 5762 5758 5754 5750 5748 5745 5744 5744 5743 5742 5740 5739 5739 5739 5740 5739 5738 5738 5738 5739 5739 5738 5735 5735
5815 5819 5818 5820 5832 5834 5830 5830 5835 5840 5837 5831 5826 5821 5814 5808 5806 5804 5800 5795 5788 5783 5777 5771 5767 5763 5759 5755 5751 5748 5746 5745 5743 5742 5741 5739 5739 5739 5739 5739 5738 5739 5739 5738 5738 5737 5736 5736 5735
5820 5817 5815 5820 5832 5829 5826 5827 5832 5837 5835 5831 5827 5822 5816 5812 5811 5806 5801 5796 5789 5783 5777 5772 5768 5764 5760 5756 5752 5749 5747 5746 5745 5743 5741 5740 5739 5739 5738 5740 5738 5738 5739 5738 5739 5738 5736 5735 5736
5815 5811 5814 5819 5828 5826 5824 5826 5833 5834 5832 5832 5828 5823 5818 5814 5809 5804 5800 5795 5790 5784 5779 5774 5770 5766 5762 5759 5755 5752 5750 5749 5747 5745 5743 5741 5740 5739 5740 5739 5739 5739 5738 5738 5738 5736 5736 5737 5737
5809 5810 5812 5812 5821 5827 5822 5819 5826 5831 5833 5832 5831 5828 5825 5818 5810 5804 5800 5795 5791 5786 5781 5778 5772 5768 5764 5760 5756 5752 5749 5747 5746 5745 5744 5743 5741 5740 5740 5740 5740 5740 5740 5739 5737 5737 5735 5734 5737
5802 5815 5813 5811 5810 5814 5815 5808 5821 5827 5826 5827 5828 5828 5825 5821 5815 5808 5802 5797 5793 5788 5784 5779 5773 5769 5765 5760 5756 5752 5748 5746 5746 5745 5745 5744 5742 5741 5741 5740 5740 5739 5741 5739 5739 5740 5738 5735 5735
5809 5815 5813 5812 5809 5808 5813 5806 5821 5825 5820 5826 5829 5829 5827 5823 5818 5810 5805 5800 5795 5790 5785 5779 5773 5768 5764 5761 5757 5752 5749 5748 5747 5745 5743 5742 5743 5742 5742 5741 5740 5740 5740 5740 5739 5739 5738 5738 5736
5811 5809 5807 5809 5809 5790 5804 5798 5806 5825 5823 5827 5829 5829 5826 5824 5819 5812 5807 5801 5794 5790 5785 5779 5772 5767 5764 5760 5757 5753 5750 5747 5745 5743 5742 5742 5743 5742 5742 5741 5740 5740 5740 5739 5738 5737 5737 5737 5736
5805 5795 5782 5780 5783 5789 5804 5797 5808 5827 5831 5829 5828 5827 5826 5823 5818 5811 5805 5798 5793 5789 5784 5779 5772 5767 5764 5761 5757 5754 5751 5748 5745 5743 5743 5742 5743 5743 5741 5741 5740 5740 5740 5739 5738 5737 5736 5736 5734
5800 5802 5783 5774 5780 5793 5794 5795 5816 5831 5833 5832 5832 5830 5827 5822 5817 5811 5806 5800 5795 5790 5785 5779 5773 5768 5765 5761 5757 5754 5751 5750 5747 5745 5745 5744 5745 5744 5742 5741 5740 5739 5739 5738 5737 5737 5736 5735 5734
5795 5798 5816 5800 5791 5786 5795 5803 5818 5829 5827 5827 5828 5826 5823 5820 5817 5812 5807 5801 5796 5790 5785 5780 5773 5769 5766 5762 5757 5754 5752 5750 5748 5747 5745 5746 5745 5744 5742 5741 5740 5739 5737 5736 5735 5735 5734 5733 5733
5807 5809 5796 5790 5770 5770 5783 5789 5802 5813 5818 5821 5821 5821 5821 5819 5816 5812 5807 5802 5797 5792 5786 5781 5775 5769 5766 5762 5759 5756 5753 5751 5749 5748 5745 5744 5744 5742 5741 5740 5738 5737 5736 5734 5733 5733 5732 5731 5730
5788 5791 5794 5794 5793 5776 5774 5791 5821 5818 5820 5819 5821 5822 5820 5817 5815 5811 5806 5802 5797 5791 5785 5779 5774 5769 5765 5762 5759 5756 5753 5751 5749 5746 5745 5743 5742 5740 5738 5737 5736 5735 5734 5733 5731 5731 5730 5728 5728
5800 5797 5792 5778 5775 5782 5784 5797 5827 5825 5826 5823 5821 5820 5818 5816 5813 5809 5805 5799 5794 5788 5783 5778 5774 5769 5765 5762 5758 5755 5752 5750 5747 5745 5743 5742 5740 5738 5737 5735 5734 5733 5732 5731 5729 5728 5728 5726 5724